Regional Weather Roundup
Issued by NWS Burlington, VT

Current Version | Previous Version | Graphics & Text | Print | Product List | Glossary Off
Versions: 1 2 3 4 5 6 7 8 9 10 11 12 13 14 15 16 17 18 19 20 21 22 23 24 25 26 27 28 29 30 31 32 33 34 35 36 37 38 39 40 41 42 43 44 45 46 47 48 49 50

000
ASUS41 KBTV 310710
RWRBTV
VERMONT REGIONAL WEATHER ROUNDUP
NATIONAL WEATHER SERVICE BURLINGTON VT
300 AM EDT TUE MAY 31 2016

NOTE: "FAIR" INDICATES FEW OR NO CLOUDS BELOW 12,000 FEET WITH NO
SIGNIFICANT WEATHER AND/OR OBSTRUCTIONS TO VISIBILITY.

* THESE REPORTS ARE NOT UNDER NWS QUALITY CONTROL AND/OR DO NOT
  REPORT WEATHER SUCH AS PRECIPITATION AND FOG.

VTZ001>019-310800-
_____VERMONT_____


CITY           SKY/WX    TMP DP  RH WIND       PRES   REMARKS
BURLINGTON     FAIR      70  51  51 W10       29.86S
MONTPELIER     FAIR      63  53  70 CALM      29.91S
MORRISVILLE    FAIR      59  54  83 SE3       29.87S
ST. JOHNSBURY*   N/A     60  57  89 MISG      29.84S
LYNDONVILLE*   FAIR      59  52  77 CALM      29.87F
RUTLAND*       FAIR      64  59  83 CALM      29.91R
SPRINGFIELD    FAIR      64  60  87 CALM      29.89R
HIGHGATE*      FAIR      66  55  66 S5        29.84S
NEWPORT*       FAIR      65  54  66 W10       29.85S
BENNINGTON     FAIR      62  60  93 CALM      29.93R

_____LAKE CHAMPLAIN_____


CITY           SKY/WX    TMP DP  RH WIND       PRES   REMARKS
BURTON ISLAND*   N/A     68  59  73 SW3         N/A
COLCHESTER RF*   N/A     72  55  56 W12         N/A
DIAMOND ISL*     N/A     68  59  73 SE2         N/A

$$

NYZ007-026>031-035-052-083-087-310800-
_____NORTHERN NEW YORK_____


CITY           SKY/WX    TMP DP  RH WIND       PRES   REMARKS
PLATTSBURGH    CLEAR     67  54  63 W3        29.86S
SARANAC LAKE   CLEAR     57  48  72 SW7       29.92S
MASSENA        CLEAR     59  51  75 SW10      29.88R
OGDENSBURG*    CLEAR     61  54  77 SW6       29.89S
WATERTOWN      CLEAR     59  52  77 SW6       29.93S
ALBANY         CLOUDY    66  60  81 W7        29.93R
GLENS FALLS    PTCLDY    65  58  78 SW7       29.90R

$$
NHZ002-005-011-310800-
_____NEW HAMPSHIRE_____


CITY           SKY/WX    TMP DP  RH WIND       PRES   REMARKS
LEBANON        CLOUDY    65  59  81 CALM      29.87S
MT WASHINGTON  FOG       45  45 100 W51         N/A  VSB 1/16
PLYMOUTH       FAIR      62  60  96 CALM      29.86R FOG
WHITEFIELD     PTCLDY    57  54  89 CALM      29.86F

$$

_____REGIONAL QUEBEC LOCATIONS_____


CITY           SKY/WX    TMP DP  RH WIND       PRES   REMARKS
MONTREAL       PTCLDY    66  54  63 SW12      29.81S
QUEBEC CITY    CLEAR     63  57  82 W5        29.74R
SHERBROOKE     CLEAR     64  57  77 SW7       29.81S

_____REGIONAL ONTARIO LOCATIONS_____


CITY           SKY/WX    TMP DP  RH WIND       PRES   REMARKS
OTTAWA         CLEAR     57  50  77 SW8       29.86R

______KEY______
VSB  - VISIBILITY IN MILES
WCI  - WIND CHILL INDEX
HX   - HEAT INDEX
$$
NNNN



USA.gov is the U.S. government's official web portal to all federal, state and local government web resources and services.